Location: Namasale
(1.5000°N, 32.6167°E)
Time: 21:03:58
(UTC+00:00)

Envisat - Pass Details

Date: 07 December 2021
Orbit: 764 x 766 km, 98.2° (Epoch: 25 January)

Event Time Altitude Azimuth Distance (km) Brightness Sun altitude
Rises 02:12:00 0° 18° (NNE) 3,214 6.2 -21.1°
Reaches altitude 10° 02:14:19 10° 21° (NNE) 2,291 5.4 -20.5°
Maximum altitude 02:19:18 63° 102° (ESE) 850 3.4 -19.4°
Drops below altitude 10° 02:24:19 10° 183° (S) 2,298 5.7 -18.2°
Sets 02:26:38 0° 186° (S) 3,226 6.5 -17.7°
